Location: Altenst�hlen
(53.5567°N, 8.9425°E)
Time: 22:23:30
(UTC+00:00)

STARLINK-68 - Pass Details

Date: 23 October 2019
Orbit: 548 x 551 km, 53.0° (Epoch: 20 November)

Event Time Altitude Azimuth Distance (km) Brightness Sun altitude
Rises 17:01:42 0° 269° (W) 2,718 9.5 -8.2°
Reaches altitude 10° 17:03:56 10° 269° (W) 1,825 8.0 -8.5°
Maximum altitude 17:08:05 85° 184° (S) 558 3.6 -9.1°
Enters shadow 17:11:47 13° 94° (E) 1,645 5.4 -9.7°
